| time (UTC) | temp F | wind direction | speed MPH | gust MPH | rain 1hr in | rain 24hr in | rain mn in | humidity % | barometer mb |
| 20260905201607 | 92 | 167 | 3.0 | 7.0 | 0.00 | 0.00 | 0.00 | 59 | 1012.9 |
| 20260905194605 | 98 | 165 | 2.0 | 7.0 | 0.00 | 0.00 | 0.00 | 50 | 1013.1 |
| 20260905193104 | 98 | 165 | 3.0 | 6.0 | 0.00 | 0.00 | 0.00 | 50 | 1013.1 |
| 20260905191614 | 97 | 165 | 2.0 | 6.0 | 0.00 | 0.00 | 0.00 | 48 | 1013.2 |
| 20260905190105 | 96 | 165 | 1.0 | 6.0 | 0.00 | 0.00 | 0.00 | 50 | 1013.3 |
| 20260905184618 | 96 | 165 | 1.0 | 2.0 | 0.00 | 0.01 | 0.00 | 51 | 1013.5 |
| 20260905183104 | 95 | 165 | 2.0 | 5.0 | 0.00 | 0.01 | 0.00 | 51 | 1013.7 |
| 20260905181603 | 94 | 165 | 3.0 | 6.0 | 0.00 | 0.01 | 0.00 | 52 | 1014.0 |
| 20260905180108 | 95 | 165 | 1.0 | 3.0 | 0.00 | 0.01 | 0.00 | 52 | 1014.4 |
| 20260905174619 | 94 | 165 | 2.0 | 3.0 | 0.00 | 0.01 | 0.00 | 55 | 1014.6 |
| 20260905173112 | 94 | 165 | 1.0 | 3.0 | 0.00 | 0.01 | 0.00 | 56 | 1014.9 |
| 20260905171602 | 94 | 165 | 1.0 | 3.0 | 0.00 | 0.01 | 0.00 | 57 | 1014.9 |
| 20260905170106 | 94 | 165 | 1.0 | 4.0 | 0.00 | 0.01 | 0.00 | 59 | 1015.0 |
| 20260905164604 | 92 | 165 | 1.0 | 3.0 | 0.00 | 0.03 | 0.00 | 57 | 1015.3 |
| 20260905163108 | 90 | 0 | 1.0 | 3.0 | 0.00 | 0.03 | 0.00 | 60 | 1015.4 |
| 20260905161601 | 89 | 0 | 0.0 | 2.0 | 0.00 | 0.03 | 0.00 | 68 | 1015.4 |
| 20260905160105 | 87 | 165 | 0.0 | 0.0 | 0.00 | 0.03 | 0.00 | 70 | 1015.3 |
| 20260905154606 | 88 | 0 | 0.0 | 1.0 | 0.00 | 0.03 | 0.00 | 70 | 1015.4 |
| 20260905153111 | 87 | 0 | 0.0 | 1.0 | 0.00 | 0.03 | 0.00 | 74 | 1015.3 |
| 20260905151608 | 86 | 165 | 0.0 | 1.0 | 0.00 | 0.03 | 0.00 | 75 | 1015.4 |
| 20260905150104 | 85 | 0 | 0.0 | 1.0 | 0.00 | 0.03 | 0.00 | 78 | 1015.5 |
| 20260905144606 | 84 | 0 | 0.0 | 0.0 | 0.00 | 0.03 | 0.00 | 81 | 1015.3 |
| 20260905143108 | 84 | 0 | 0.0 | 0.0 | 0.00 | 0.03 | 0.00 | 84 | 1015.4 |
| 20260905141614 | 83 | 0 | 0.0 | 0.0 | 0.00 | 0.03 | 0.00 | 86 | 1015.4 |
| 20260905140107 | 83 | 0 | 0.0 | 0.0 | 0.00 | 0.03 | 0.00 | 87 | 1015.3 |
| 20260905134612 | 82 | 0 | 0.0 | 0.0 | 0.00 | 0.03 | 0.00 | 89 | 1015.1 |
| 20260905133106 | 81 | 0 | 0.0 | 0.0 | 0.00 | 0.03 | 0.00 | 91 | 1015.2 |
| 20260905131608 | 80 | 0 | 0.0 | 0.0 | 0.00 | 0.03 | 0.00 | 93 | 1015.1 |
| 20260905130104 | 79 | 0 | 0.0 | 0.0 | 0.00 | 0.03 | 0.00 | 94 | 1014.9 |
| 20260905124603 | 78 | 0 | 0.0 | 0.0 | 0.00 | 0.03 | 0.00 | 94 | 1014.9 |
| 20260905123103 | 77 | 0 | 0.0 | 0.0 | 0.00 | 0.03 | 0.00 | 94 | 1014.5 |
| 20260905121603 | 77 | 0 | 0.0 | 0.0 | 0.00 | 0.03 | 0.00 | 94 | 1014.6 |
| 20260905114633 | 77 | 0 | 0.0 | 0.0 | 0.00 | 0.03 | 0.00 | 94 | 1014.2 |
| 20260905113108 | 77 | 0 | 0.0 | 0.0 | 0.00 | 0.03 | 0.00 | 94 | 1013.9 |
| 20260905111601 | 77 | 0 | 0.0 | 0.0 | 0.00 | 0.03 | 0.00 | 94 | 1013.8 |
| 20260905110100 | 77 | 0 | 0.0 | 0.0 | 0.00 | 0.03 | 0.00 | 94 | 1013.7 |
| 20260905104605 | 77 | 0 | 0.0 | 0.0 | 0.00 | 0.03 | 0.00 | 94 | 1013.7 |
| 20260905103102 | 77 | 0 | 0.0 | 0.0 | 0.00 | 0.03 | 0.00 | 94 | 1013.6 |
| 20260905101605 | 77 | 0 | 0.0 | 0.0 | 0.00 | 0.03 | 0.00 | 93 | 1013.7 |
| 20260905100115 | 77 | 0 | 0.0 | 0.0 | 0.00 | 0.03 | 0.00 | 93 | 1013.6 |
| 20260905094622 | 77 | 0 | 0.0 | 0.0 | 0.00 | 0.03 | 0.00 | 93 | 1013.6 |
| 20260905093103 | 77 | 0 | 0.0 | 0.0 | 0.00 | 0.03 | 0.00 | 93 | 1013.6 |
| 20260905091615 | 77 | 0 | 0.0 | 0.0 | 0.00 | 0.03 | 0.00 | 93 | 1013.7 |
| 20260905090104 | 78 | 0 | 0.0 | 0.0 | 0.00 | 0.03 | 0.00 | 92 | 1013.5 |
| 20260905084604 | 78 | 0 | 0.0 | 0.0 | 0.00 | 0.03 | 0.00 | 92 | 1013.5 |
| 20260905083103 | 78 | 0 | 0.0 | 0.0 | 0.00 | 0.03 | 0.00 | 92 | 1013.5 |
| 20260905081607 | 78 | 0 | 0.0 | 0.0 | 0.00 | 0.03 | 0.00 | 92 | 1013.6 |
| 20260905074604 | 79 | 0 | 0.0 | 0.0 | 0.00 | 0.03 | 0.00 | 91 | 1013.8 |
| 20260905073109 | 79 | 0 | 0.0 | 0.0 | 0.00 | 0.03 | 0.00 | 91 | 1013.8 |
| 20260905071601 | 79 | 0 | 0.0 | 0.0 | 0.00 | 0.03 | 0.00 | 91 | 1014.0 |
| 20260905070104 | 80 | 0 | 0.0 | 0.0 | 0.00 | 0.03 | 0.00 | 90 | 1014.1 |
| 20260905064614 | 80 | 0 | 0.0 | 0.0 | 0.00 | 0.03 | 0.00 | 89 | 1014.0 |
| 20260905063117 | 80 | 0 | 0.0 | 0.0 | 0.00 | 0.03 | 0.00 | 89 | 1014.2 |
| 20260905061619 | 80 | 0 | 0.0 | 0.0 | 0.00 | 0.03 | 0.00 | 89 | 1014.2 |
| 20260905060107 | 80 | 0 | 0.0 | 0.0 | 0.00 | 0.03 | 0.00 | 89 | 1014.4 |
| 20260905054605 | 81 | 0 | 0.0 | 0.0 | 0.00 | 0.03 | 0.00 | 88 | 1014.3 |
| 20260905053103 | 81 | 0 | 0.0 | 0.0 | 0.00 | 0.03 | 0.00 | 88 | 1014.3 |
| 20260905051612 | 81 | 0 | 0.0 | 0.0 | 0.00 | 0.03 | 0.00 | 87 | 1014.3 |
| 20260905050109 | 81 | 0 | 0.0 | 0.0 | 0.00 | 0.03 | 0.00 | 86 | 1014.3 |
| 20260905044606 | 82 | 0 | 0.0 | 0.0 | 0.00 | 0.03 | 0.03 | 85 | 1014.3 |
| 20260905043105 | 82 | 0 | 0.0 | 2.0 | 0.00 | 0.03 | 0.03 | 84 | 1014.4 |
| 20260905041605 | 82 | 165 | 0.0 | 1.0 | 0.00 | 0.03 | 0.03 | 84 | 1014.4 |
| 20260905040104 | 82 | 165 | 0.0 | 1.0 | 0.00 | 0.03 | 0.03 | 84 | 1014.5 |
| 20260905034613 | 83 | 0 | 0.0 | 1.0 | 0.00 | 0.03 | 0.03 | 82 | 1014.6 |
| 20260905033110 | 83 | 165 | 0.0 | 3.0 | 0.00 | 0.03 | 0.03 | 82 | 1014.7 |
| 20260905031615 | 83 | 0 | 0.0 | 1.0 | 0.00 | 0.03 | 0.03 | 81 | 1014.6 |
| 20260905030110 | 84 | 165 | 0.0 | 3.0 | 0.00 | 0.03 | 0.03 | 80 | 1014.7 |
| 20260905024604 | 84 | 0 | 0.0 | 2.0 | 0.00 | 0.03 | 0.03 | 79 | 1014.6 |
| 20260905023137 | 84 | 0 | 0.0 | 2.0 | 0.00 | 0.03 | 0.03 | 78 | 1014.4 |
| 20260905021606 | 85 | 165 | 0.0 | 4.0 | 0.00 | 0.03 | 0.03 | 77 | 1014.1 |
| 20260905020106 | 85 | 0 | 0.0 | 3.0 | 0.00 | 0.03 | 0.03 | 75 | 1013.9 |
| 20260905014620 | 85 | 0 | 0.0 | 7.0 | 0.00 | 0.03 | 0.03 | 75 | 1013.8 |
| 20260905013109 | 85 | 165 | 1.0 | 1.0 | 0.00 | 0.03 | 0.03 | 73 | 1013.7 |
| 20260905011606 | 85 | 165 | 1.0 | 3.0 | 0.00 | 0.03 | 0.03 | 72 | 1013.6 |
| 20260905010105 | 87 | 164 | 0.0 | 2.0 | 0.00 | 0.03 | 0.03 | 70 | 1013.5 |
| 20260905004609 | 87 | 0 | 1.0 | 4.0 | 0.00 | 0.03 | 0.03 | 68 | 1013.5 |
| 20260905003106 | 88 | 0 | 0.0 | 3.0 | 0.00 | 0.03 | 0.03 | 66 | 1013.2 |
| 20260905001610 | 88 | 0 | 1.0 | 4.0 | 0.00 | 0.03 | 0.03 | 67 | 1013.1 |
| 20260905000124 | 89 | 165 | 0.0 | 3.0 | 0.00 | 0.03 | 0.03 | 66 | 1013.0 |
| 20260904234605 | 89 | 165 | 1.0 | 4.0 | 0.00 | 0.03 | 0.03 | 66 | 1012.9 |
| 20260904233104 | 89 | 165 | 0.0 | 1.0 | 0.00 | 0.03 | 0.03 | 64 | 1013.0 |
| 20260904231604 | 90 | 0 | 0.0 | 5.0 | 0.00 | 0.03 | 0.03 | 60 | 1012.9 |
| 20260904230105 | 91 | 0 | 0.0 | 2.0 | 0.00 | 0.03 | 0.03 | 60 | 1012.9 |
| 20260904224607 | 92 | 165 | 0.0 | 3.0 | 0.00 | 0.03 | 0.03 | 60 | 1012.9 |
| 20260904223105 | 93 | 165 | 1.0 | 6.0 | 0.00 | 0.03 | 0.03 | 57 | 1012.9 |
| 20260904221606 | 93 | 165 | 0.0 | 3.0 | 0.00 | 0.03 | 0.03 | 56 | 1012.9 |
| 20260904220119 | 93 | 165 | 1.0 | 3.0 | 0.00 | 0.03 | 0.03 | 57 | 1013.1 |
| 20260904214602 | 93 | 0 | 1.0 | 4.0 | 0.00 | 0.03 | 0.03 | 57 | 1013.1 |
| 20260904213107 | 93 | 0 | 0.0 | 5.0 | 0.00 | 0.03 | 0.03 | 56 | 1013.3 |
| 20260904211608 | 92 | 165 | 1.0 | 4.0 | 0.00 | 0.03 | 0.03 | 59 | 1013.4 |
| 20260904210119 | 91 | 165 | 2.0 | 5.0 | 0.00 | 0.03 | 0.03 | 60 | 1013.4 |
| 20260904204604 | 92 | 165 | 1.0 | 5.0 | 0.00 | 0.09 | 0.03 | 61 | 1013.6 |
| 20260904203107 | 91 | 165 | 2.0 | 3.0 | 0.00 | 0.09 | 0.03 | 65 | 1014.0 |